Meteo Giornale » Osservazioni meteo Italia » Catania-Fontanarossa

ore: 14:50 - Osservazioni Meteo Catania-Fontanarossa
Lat. 37° 28' N Lon. 15° 3' E Alt. 11 metri s.l.m.

coperto_pioggia Europe/Rome

15 °C

Pioggia Debole

Temp. 24 Ore

11 °C

17 °C

Nord

3.7 Km/h

Dew point 14 °C

Umidità 93 %

Visibilità  8 Km

Il sole sorge alle ore 06:56

Il sole tramonta alle ore 16:43

Data e Ora Cielo e Fenomeni T °C DP °C Um. % Pres. hPa Vis. km Vento km/h
Oggi h: 14:50 coperto_pioggia Pioggia Debole 15 14 93 1003 8 N 3.7
Oggi h: 14:20 coperto_pioggia Pioggia Debole 15 14 93 1003 8 N 3.7
Oggi h: 13:50 nuvoloso Nuvoloso 15 14 93 1004 8 N 1.8
Oggi h: 13:20 molto_nuvoloso Molto Nuvoloso 16 13 82 1004 8 N 1.8
Oggi h: 12:50 molto_nuvoloso Molto Nuvoloso 15 14 93 1004 7 N 1.8
Oggi h: 12:20 coperto_pioggia Pioviggine Leggera 15 13 87 1005 6 N 3.7
Oggi h: 11:50 coperto_pioggia Pioggia 15 13 87 1005 6 N 5.5
Oggi h: 11:20 coperto_pioggia Pioggia Debole 15 13 87 1006 6 N 5.5
Oggi h: 10:50 coperto_pioggia Pioggia Debole 15 13 87 1006 7 N 5.5
Oggi h: 10:20 coperto_pioggia Pioggia Debole 14 13 93 1007 7 N 5.5
Oggi h: 09:50 coperto_pioggia Pioggia Debole Foschia 14 13 93 1007 5 O/NO 11.1
Oggi h: 09:20 coperto_pioggia Pioggia Debole 14 13 93 1007 7 N 5.5
Oggi h: 08:50 coperto_pioggia Pioviggine Leggera 14 13 93 1007 8 N 9.3
Oggi h: 08:20 coperto_pioggia Pioggia Debole 13 13 100 1007 7 N/NE 11.1
Oggi h: 07:50 coperto_pioggia Pioviggine 13 13 100 1007 8 N 11.1
Oggi h: 07:20 coperto_pioggia Pioggia 12 12 100 1007 4 N 3.7
Oggi h: 06:50 coperto_pioggia Pioggia Debole 12 12 100 1007 7 N 5.5
Oggi h: 06:20 coperto_pioggia Pioggia Debole 13 12 93 1007 8 S 7.4
Oggi h: 05:50 coperto_pioggia Pioggia Debole 13 12 93 1007 7 SO 13
Oggi h: 04:50 nuvoloso Nuvoloso 14 12 87 1007 10 O/NO 11.1
Oggi h: 04:20 molto_nuvoloso Molto Nuvoloso 15 12 82 1007 10 NO 9.3
Oggi h: 03:50 molto_nuvoloso Molto Nuvoloso 15 13 87 1008 10 O 9.3
Oggi h: 03:20 molto_nuvoloso Molto Nuvoloso 14 13 93 1008 10 O 14.8
Oggi h: 02:50 nuvoloso Nuvoloso 13 13 100 1008 10 O 13
Oggi h: 02:20 nuvoloso Nuvoloso 12 11 93 1009 10 N 1.8
Oggi h: 01:50 nuvoloso Nuvoloso 11 11 100 1009 10 S/SO 7.4
Oggi h: 01:20 nuvoloso Nuvoloso 12 11 93 1009 10 SO 9.3
Oggi h: 00:50 nuvoloso Nuvoloso 11 11 100 1009 10 O/SO 11.1
Oggi h: 00:20 nuvoloso Nuvoloso 11 10 93 1009 10 O/SO 11.1
Ieri h: 23:50 nuvoloso Nuvoloso 11 11 100 1010 10 SO 7.4
Ieri h: 23:20 nuvoloso Nuvoloso 11 10 93 1010 10 N 3.7
Ieri h: 22:50 poco_nuvoloso Poco Nuvoloso 11 10 93 1010 10 O/SO 7.4
Ieri h: 22:20 poco_nuvoloso Poco Nuvoloso 12 11 93 1010 10 N 1.8
Ieri h: 21:50 poco_nuvoloso Poco Nuvoloso 13 12 93 1010 10 N 3.7
Ieri h: 21:20 poco_nuvoloso Poco Nuvoloso 13 12 93 1010 10 N 3.7
Ieri h: 20:50 nuvoloso Nuvoloso 14 12 87 1010 10 O 7.4
Ieri h: 20:20 nuvoloso Nuvoloso 14 13 93 1010 10 N 3.7
Ieri h: 19:50 nuvoloso Nuvoloso 15 13 87 1010 10 N 3.7
Ieri h: 19:20 nuvoloso Nuvoloso 14 13 93 1010 10 N 3.7
Ieri h: 18:50 nuvoloso Nuvoloso 15 13 87 1010 10 N 1.8
Ieri h: 18:20 nuvoloso Nuvoloso 15 13 87 1010 10 N 3.7
Ieri h: 17:20 nuvoloso Nuvoloso 17 13 77 1010 10 S/SE 7.4
Ieri h: 16:20 molto_nuvoloso Molto Nuvoloso 17 13 77 1010 10 N 5.5
Ieri h: 15:20 molto_nuvoloso Molto Nuvoloso 17 13 77 1010 10 S 7.4
Ieri h: 14:50 molto_nuvoloso Molto Nuvoloso 17 14 82 1010 10 S/SE 9.3